Location: Cormeilles
(48.9711°N, 2.2049°E)
Time: 13:54:02
(UTC+00:00)

Daily predictions for brighter satellites

Satellite Brightness Start Highest point End
(mag) Time Altitude Azimuth Time Altitude Azimuth Time Altitude Azimuth
CENTAUR R/B 4.2 20:37:54 10° ESE 20:38:50 10° E 20:39:48 10° E
Cosmos 1862 Rocket 3.6 20:36:20 10° S 20:40:45 88° E 20:45:15 10° N
Cosmos 1356 Rocket 4.0 20:36:58 10° SSW 20:41:08 62° WNW 20:45:18 10° N
Okean O Rocket 3.5 20:40:20 10° SSW 20:44:05 28° W 20:47:51 10° NW
USA 245 4.0 20:41:26 10° SSE 20:45:51 76° ENE 20:51:20 10° N
Cosmos 2208 Rocket 4.3 20:41:10 10° NNW 20:46:18 58° ENE 20:51:23 10° SE
Cosmos 371 Rocket 4.5 20:43:54 10° SSE 20:47:41 24° E 20:51:32 10° NE
Ariane Rocket 3.2 20:45:06 10° SSE 20:50:07 62° ENE 20:55:09 10° N
CZ-4C R/B 2.4 20:46:10 10° S 20:50:12 35° ESE 20:55:07 10° NE
Cosmos 1242 Rocket 2.7 20:47:46 10° SSE 20:50:13 31° E 20:52:40 10° NNE
Cosmos 2228 Rocket 3.9 20:46:02 10° SSW 20:50:31 57° WNW 20:55:03 10° N
Meteor 1-4 Rocket 2.2 20:48:09 10° SSW 20:51:08 78° WNW 20:54:09 10° N
Terra 1.8 20:50:36 10° SSE 20:55:18 82° ENE 21:00:03 10° NNW
Iridium 51 4.4 20:56:09 10° S 21:00:19 66° E 21:04:16 10° N
MOS 1 Rocket 3.6 20:55:26 10° SSE 21:00:43 78° ENE 21:05:48 10° N
Cosmos 2360 Rocket 4.1 20:58:13 10° NW 21:02:39 24° WSW 21:07:03 10° SSW
Cosmos 1953 2.2 21:01:35 10° N 21:05:25 89° ENE 21:09:12 10° S
COSMOS 2428 2.8 21:01:33 10° NNW 21:07:16 80° WSW 21:12:53 10° SSE
USA 234 4.0 21:01:46 10° ENE 21:07:22 30° SE 21:12:56 10° S
SPOT 5 3.9 21:06:51 10° SSW 21:10:56 38° W 21:15:14 10° NNW
BREEZE-M DEB (TANK) 2.8 21:13:26 10° W 21:15:53 85° N 21:21:21 10° E
BlueWalker 3 2.7 21:18:20 10° W 21:22:01 53° NNW 21:25:42 10° ENE
ERS-1 Rocket 3.8 21:22:22 10° S 21:27:12 47° W 21:32:03 10° NNW
Cosmos 1315 Rocket 3.7 21:23:57 10° SSW 21:27:50 49° WNW 21:31:44 10° N
SL-4 R/B 3.3 21:26:30 10° W 21:29:46 26° SW 21:32:19 15° SSE
SL-08 R/B 4.5 21:26:46 10° S 21:32:51 87° W 21:39:02 10° N
Cosmos 2084 Rocket 3.4 21:29:38 10° SSW 21:33:53 60° SE 21:37:59 10° NE
Cosmos 1408 2.5 21:32:50 19° SSE 21:34:40 42° E 21:37:33 10° NNE
Cosmos 773 Rocket 4.0 21:29:38 10° NNW 21:34:50 75° ENE 21:39:00 16° SSE
Cosmos 1908 Rocket 4.1 21:31:15 10° NNW 21:35:29 54° W 21:39:41 10° S
BREEZE-M DEB (TANK) 4.2 21:34:03 10° W 21:38:35 89° N 21:58:29 10° E
Cosmos 2242 Rocket 4.1 21:35:53 15° SSE 21:39:21 46° E 21:43:43 10° NNE
Cosmos 1782 Rocket 3.5 21:35:17 10° N 21:39:39 89° E 21:43:07 16° S
BREEZE-M DEB (TANK) 3.7 21:38:56 10° WSW 21:40:47 21° SSW 21:41:57 17° S
Cosmos 1300 Rocket 3.5 21:38:56 10° N 21:43:17 81° E 21:46:34 17° SSE
Cosmos 1709 Rocket 4.3 21:38:03 14° SSE 21:43:23 52° E 21:49:29 10° NNE
SL-16 R/B 3.4 21:39:39 10° NNW 21:44:49 34° NE 21:49:57 10° ESE
Cosmos 2237 Rocket 2.2 21:40:12 10° NNW 21:45:54 86° ENE 21:50:16 17° SSE
NOSS 3-2 (A) 4.4 21:48:36 17° SE 21:50:39 21° ESE 21:54:55 10° ENE
Cosmos 2227 Rocket 2.9 21:47:45 16° SSE 21:51:40 36° ESE 21:56:48 10° NE
SJ 16-02 4.2 21:54:50 10° W 21:57:40 17° NW 22:00:31 10° N
H-2A R/B 4.0 21:56:06 14° ESE 21:58:53 26° ENE 22:02:22 10° N
Cosmos 1455 4.1 21:56:17 10° NW 21:59:03 22° W 22:01:48 10° SW
Cosmos 1980 3.8 21:54:56 10° NNW 22:00:35 72° WSW 22:04:42 19° SSE
EXPRESS MD2 2.1 21:58:57 10° W 22:01:15 47° SSW 22:01:35 42° S
GP-B 3.1 21:59:03 10° N 22:03:30 84° W 22:06:48 18° S
Meteor 2-5 Rocket 4.0 21:59:20 17° SSE 22:03:41 56° E 22:09:18 10° NNE
Landsat 5 3.7 21:59:51 10° N 22:04:00 73° WNW 22:08:06 11° SSW
Cosmos 1777 Rocket 4.0 22:01:00 13° S 22:05:43 67° ESE 22:10:58 10° NNE
ARIANE 5 R/B 2.9 22:03:45 21° SE 22:06:28 54° ENE 22:10:45 10° N
SeaSat 1 3.2 22:04:02 16° S 22:07:35 42° WSW 22:12:15 10° NW
Cosmos 1825 3.6 22:06:41 17° ESE 22:07:35 19° E 22:10:05 10° NE
COSMOS 2455 3.3 22:01:50 10° SW 22:07:49 66° NW 22:13:51 10° NNE
Cosmos 1174 4.3 22:04:15 10° NW 22:08:55 55° WSW 22:11:05 24° S
Cosmos 2297 Rocket 2.2 22:04:44 10° SSW 22:10:23 88° ESE 22:16:05 10° NNE
Cosmos 1703 3.0 22:10:39 23° S 22:12:48 77° E 22:16:30 10° NNE
Cosmos 1503 Rocket 4.1 22:12:04 10° SSW 22:17:24 85° WNW 22:22:41 10° NNE
NOSS 8 (A) 4.4 22:16:46 10° NW 22:19:44 62° SW 22:21:11 31° SSE
SL-23 DEB 4.4 22:22:14 10° SW 22:26:11 62° SSE 22:32:55 10° ENE
Cosmos 1461 4.0 22:26:32 22° ESE 22:26:46 22° ESE 22:29:51 10° ENE
Cosmos 2219 3.8 22:23:58 23° SSE 22:26:48 37° ESE 22:31:56 10° NE
CENTAUR R/B 2.5 22:22:27 12° SSW 22:27:35 60° ESE 22:34:29 10° NE
Cosmos 371 Rocket 4.2 22:23:02 10° SW 22:27:42 49° WNW 22:32:25 10° NNE
Cosmos 1818 4.2 22:23:00 10° NNW 22:28:25 54° NE 22:32:53 15° ESE
Cosmos 2263 Rocket 3.2 22:27:07 21° SE 22:29:23 28° ESE 22:34:05 10° NE
Cosmos 2151 Rocket 3.6 22:27:10 10° N 22:31:32 67° ENE 22:33:47 27° SSE
Cosmos 1892 3.1 22:31:14 31° SE 22:32:20 41° E 22:35:42 10° NNE
Terra 4.2 22:31:08 10° WSW 22:33:30 14° W 22:35:54 10° WNW
Okean 2 Rocket 3.2 22:31:29 10° N 22:35:59 68° E 22:38:18 28° SSE
Meteor 1-24 Rocket 3.7 22:32:42 18° SSW 22:37:03 84° W 22:42:34 10° N
CZ-4C R/B 3.2 22:33:48 10° WSW 22:38:24 46° NW 22:44:11 10° NE
ALOS 2 3.1 22:46:36 25° SE 22:48:52 52° ENE 22:53:08 10° N
Cosmos 1898 Rocket 4.4 22:48:08 24° SE 22:50:06 31° ESE 22:54:37 10° NE
Cosmos 405 Rocket 3.3 22:46:43 10° NNW 22:50:20 45° W 22:51:59 27° SSW
USA 234 3.2 22:44:21 10° ENE 22:50:57 85° SE 22:57:31 10° SW
Cosmos 292 Rocket 4.4 22:49:43 28° SSE 22:51:36 40° ESE 22:56:06 10° NE
H-2A R/B 3.9 22:53:19 10° NE 22:55:55 16° E 22:57:02 15° ESE
PSLV R/B 3.9 22:52:15 10° NNE 22:56:15 79° WNW 22:58:17 28° SSW
USA 281 3.2 22:56:14 24° SSE 23:00:25 75° WSW 23:07:03 10° NNW
BlueWalker 3 3.1 22:57:00 10° WNW 23:00:36 43° N 23:04:13 10° E
MINOTAUR 4 R/B 3.8 22:58:27 10° N 23:01:20 61° WNW 23:02:07 41° SW
Cosmos 2074 Rocket 4.0 22:58:51 25° S 23:02:34 70° E 23:08:47 10° NNE
Cosmos 2181 Rocket 4.1 22:59:23 10° NNW 23:05:30 67° W 23:09:14 24° S
CZ-2C R/B 4.4 23:01:36 10° N 23:05:53 49° WNW 23:09:05 17° SW
Aureole 1 Rocket 3.4 23:05:07 34° SSE 23:06:39 52° ESE 23:11:39 10° NNE
Cosmos 990 Rocket 3.9 23:04:48 24° SSW 23:08:00 89° ESE 23:13:10 10° NNE
Cosmos 2221 Rocket 3.6 23:07:37 29° SSW 23:09:51 78° W 23:14:18 10° N
Cosmos 1328 3.8 23:09:17 38° SSE 23:10:35 67° E 23:14:26 10° NNE
Okean 1 Rocket 3.0 23:07:48 10° NNW 23:12:12 82° W 23:14:06 34° S
Sich 1 Rocket 4.1 23:10:58 10° NNW 23:15:13 49° W 23:17:10 28° SSW
Cosmos 1295 Rocket 4.4 23:12:40 27° S 23:16:14 77° E 23:22:26 10° NNE
Meteor 1-21 Rocket 4.4 23:21:20 28° SSE 23:24:15 61° E 23:29:47 10° NNE
Cosmos 1680 Rocket 3.9 23:19:53 10° NNW 23:25:02 57° ENE 23:28:15 22° SE
Cosmos 1025 Rocket 3.0 23:23:54 36° S 23:25:34 73° E 23:29:51 10° NNE
Cosmos 372 Rocket 4.2 23:26:39 31° S 23:28:58 56° ESE 23:34:04 10° NNE
SL-16 R/B 2.6 23:23:39 10° NW 23:29:10 51° WSW 23:31:50 28° S
Cosmos 2237 Rocket 4.1 23:25:43 10° WNW 23:29:10 17° W 23:32:05 12° SW
Cosmos 2112 Rocket 4.5 23:26:16 10° NNW 23:31:23 55° ENE 23:34:41 21° SE
Cosmos 1975 Rocket 3.6 23:31:37 31° SE 23:33:14 45° E 23:37:28 10° NNE
H-2A R/B 3.4 23:32:04 26° SW 23:33:40 36° W 23:37:33 10° NNW
Cosmos 1606 4.0 23:31:08 10° N 23:34:18 29° ENE 23:35:43 22° ESE
Cosmos 1943 3.4 23:29:04 10° NNW 23:34:41 66° ENE 23:38:26 21° SE
Cosmos 2227 Rocket 3.2 23:30:13 10° SW 23:35:37 44° NW 23:41:03 10° NNE
Cosmos 2082 3.6 23:36:07 26° SSW 23:39:27 87° ESE 23:45:07 10° NNE
Nadezhda 3 Rocket 4.0 23:33:45 10° NNW 23:40:00 77° W 23:43:26 28° S
Cosmos 1455 Rocket 3.0 23:35:53 10° N 23:40:22 86° E 23:42:11 36° SSE
NOSS 3-2 (A) 3.4 23:35:54 14° SW 23:40:33 76° NW 23:46:56 10° NE
Cosmos 1825 3.5 23:40:07 21° WSW 23:41:35 29° WNW 23:44:37 10° N
BREEZE-M DEB (TANK) 3.4 23:41:03 10° W 23:43:48 87° N 23:50:32 10° E
Meteor 2-1 Rocket 4.5 23:40:20 10° N 23:46:12 67° ENE 23:49:33 26° SSE
NOSS 3-2 (C) 3.2 23:49:28 28° SSW 23:52:20 69° SE 23:58:32 10° NE
Cosmos 2228 4.2 23:49:37 10° N 23:53:35 34° ENE 23:55:54 20° SE
Cosmos 2297 Rocket 4.4 23:50:50 10° W 23:55:11 22° NW 23:59:34 10° N
